Meteo18 Weather Cam more information Meteo18 Weather Cam


Thunder radar more information blitzortung!


Rain radar more information rain snow radar



Select another period ( hide this area )

Units Period Custom range Directly to
Metric English Both
Daily Weekly Monthly Yearly
use both date-selectors for a custom range
previous Day
With this date

WeatherUnderground graphs for this period ( click here )


Daily Summary for Monday 24 September 2018
Time Temp. ( °C ) Dew pt. ( °C ) Wind ( km/h ) from Gust ( km/h ) Pressure ( hPa ) Humid.( % ) Rainrate ( cm )
High11,5 9,3 19,5 North ( 172/598 ) 29,0 1031,7 93 -
Average9,4 7,6 6,8 North #20/88 12,5 1030,0 89 -
Low7,3 6,0 -   1,6 1027,3 85 -
Daily Tabular details for Monday 24 September 2018
Time Temp. ( °C ) Dew pt. ( °C ) Wind ( km/h ) from Gust ( km/h ) Pressure ( hPa ) Humid.( % ) Rainrate ( cm )
00:03 11,5 9,2 11,1 NNW 20,9 1027,3 86 -
00:09 11,4 9,3 7,9 NW 24,1 1027,7 87 -
00:13 11,3 9,2 14,3 North 19,3 1027,7 87 -
00:19 11,3 9,0 9,7 North 14,5 1027,7 86 -
00:23 11,2 8,9 16,3 North 22,5 1027,7 86 -
00:29 11,2 8,9 19,5 NNE 22,5 1028,0 86 -
00:33 11,2 8,9 6,4 NNW 19,3 1028,0 86 -
00:39 11,1 8,8 7,9 NNE 17,7 1028,0 86 -
00:43 11,1 8,8 11,1 NNE 24,1 1028,3 86 -
00:49 11,1 8,7 7,9 North 19,3 1028,3 85 -
00:53 11,1 8,7 6,4 NW 24,1 1028,3 85 -
00:59 11,0 8,7 19,5 NNE 19,3 1028,7 86 -
01:03 11,0 8,7 16,3 North 16,1 1028,7 86 -
01:09 10,9 8,6 9,7 North 29,0 1028,7 86 -
01:13 10,9 8,6 16,3 NNW 17,7 1028,7 86 -
01:19 10,8 8,7 9,7 North 19,3 1029,0 87 -
01:23 10,7 8,6 9,7 NNE 12,9 1029,0 87 -
01:29 10,7 8,8 9,7 North 17,7 1029,0 88 -
01:33 10,7 8,8 3,2 NNW 17,7 1029,0 88 -
01:39 10,7 8,8 6,4 NNE 14,5 1029,0 88 -
01:43 10,7 8,8 6,4 NE 17,7 1029,3 88 -
01:49 10,7 8,6 14,3 NE 19,3 1029,3 87 -
01:53 10,7 8,6 17,7 NNW 17,7 1029,3 87 -
01:59 10,6 8,4 16,3 NNW 22,5 1029,3 86 -
02:03 10,6 8,4 4,7 ENE 16,1 1029,3 86 -
02:09 10,6 8,4 9,7 North 20,9 1029,3 86 -
02:13 10,5 8,3 3,2 North 14,5 1029,3 86 -
02:19 10,4 8,2 3,2 NNW 17,7 1029,7 86 -
02:23 10,4 8,2 9,7 NNE 19,3 1029,7 86 -
02:29 10,3 8,1 13,0 NNE 17,7 1029,7 86 -
02:33 10,3 8,1 16,3 NE 16,1 1029,7 86 -
02:39 10,2 8,0 3,2 NNE 14,5 1029,7 86 -
02:43 10,2 8,1 14,3 NE 17,7 1029,7 87 -
02:49 10,1 8,0 6,4 North 9,7 1029,7 87 -
02:53 10,1 8,0 1,4 NE 9,7 1029,7 87 -
02:59 10,0 7,9 3,2 NNW 9,7 1029,7 87 -
03:03 9,9 7,8 4,7 NE 6,4 1029,7 87 -
03:09 9,9 8,0 9,7 NNE 11,3 1029,7 88 -
03:13 9,8 7,9 4,7 ENE 9,7 1030,0 88 -
03:19 9,8 7,9 7,9 NE 9,7 1030,0 88 -
03:23 9,7 7,8 1,4 ENE 8,0 1030,0 88 -
03:29 9,7 7,8 4,7 NW 6,4 1030,0 88 -
03:33 9,7 7,8 3,2 NE 4,8 1030,0 88 -
03:39 9,6 7,7 1,4 NE 3,2 1030,0 88 -
03:43 9,6 7,9   Calm 4,8 1030,0 89 -
03:49 9,5 7,8 6,4 NNW 6,4 1030,0 89 -
03:53 9,5 7,8 4,7 ENE 6,4 1030,0 89 -
03:59 9,4 7,7 4,7 NNW 9,7 1030,0 89 -
04:03 9,4 7,7 6,4 NW 14,5 1030,4 89 -
04:09 9,3 7,6 3,2 North 12,9 1030,4 89 -
04:13 9,3 7,6 6,4 NNW 11,3 1030,4 89 -
04:19 9,2 7,5 3,2 NE 12,9 1030,4 89 -
04:23 9,2 7,5 4,7 East 12,9 1030,4 89 -
04:29 9,1 7,5 4,7 NE 11,3 1030,4 90 -
04:33 8,9 7,3 9,7 NNW 12,9 1030,4 90 -
04:39 8,8 7,2 1,4 ENE 11,3 1030,7 90 -
04:43 8,7 7,2 1,4 NNE 9,7 1030,7 90 -
04:49 8,7 7,2 4,7 NNW 11,3 1030,7 90 -
04:53 8,6 7,1 9,7 NE 12,9 1030,7 90 -
04:59 8,5 7,1 6,4 North 12,9 1030,7 91 -
05:03 8,4 7,0 9,7 NNW 11,3 1030,7 91 -
05:09 8,3 6,9 7,9 NNE 16,1 1030,7 91 -
05:13 8,3 6,9 13,0 NNE 12,9 1030,7 91 -
05:19 8,2 6,8 4,7 NNE 9,7 1030,7 91 -
05:23 8,2 7,0 7,9 North 9,7 1030,7 92 -
05:29 8,2 7,0 6,4 North 9,7 1031,0 92 -
05:33 8,1 6,9 6,4 NNW 8,0 1031,0 92 -
05:39 8,1 6,9   Calm 3,2 1031,0 92 -
05:43 7,9 6,7 3,2 NNW 4,8 1031,0 92 -
05:49 7,9 6,7   Calm 1,6 1031,0 92 -
05:53 7,8 6,6   Calm 1,6 1031,0 92 -
05:59 7,6 6,4   Calm 1,6 1031,0 92 -
06:03 7,5 6,3   Calm 3,2 1031,0 92 -
06:09 7,4 6,2   Calm 3,2 1031,0 92 -
06:13 7,4 6,2 1,4 NNW 4,8 1031,4 92 -
06:17 7,3 6,1 4,7 North 4,8 1031,4 92 -
06:24 7,3 6,1 4,7 NNW 11,3 1031,4 92 -
06:28 7,3 6,2 7,9 North 11,3 1031,4 93 -
06:34 7,4 6,2 13,0 North 12,9 1031,4 92 -
06:38 7,5 6,3 6,4 NNW 11,3 1031,4 92 -
06:44 7,5 6,3   Calm 8,0 1031,4 92 -
06:48 7,5 6,3 3,2 NE 6,4 1031,4 92 -
06:54 7,4 6,0 4,7 North 6,4 1031,7 91 -
06:58 7,4 6,0   Calm 4,8 1031,7 91 -
07:04 7,4 6,0 4,7 NE 6,4 1031,7 91 -
07:08 7,4 6,2 3,2 NE 4,8 1031,7 92 -
07:14 7,4 6,2 3,2 NNE 6,4 1031,7 92 -
07:18 7,4 6,2 4,7 North 14,5 1031,7 92 -
Daily Summary for Monday 24 September 2018
Time Temp. ( °C ) Dew pt. ( °C ) Wind ( km/h ) from Gust ( km/h ) Pressure ( hPa ) Humid.( % ) Rainrate ( cm )
High11,5 9,3 19,5 North ( 172/598 ) 29,0 1031,7 93 -
Average9,4 7,6 6,8 North #20/88 12,5 1030,0 89 -
Low7,3 6,0 -   1,6 1027,3 85 -
Daily Tabular details for Monday 24 September 2018
Time Temp. ( °C ) Dew pt. ( °C ) Wind ( km/h ) from Gust ( km/h ) Pressure ( hPa ) Humid.( % ) Rainrate ( cm )
00:03 11,5 9,2 11,1 NNW 20,9 1027,3 86 -
00:09 11,4 9,3 7,9 NW 24,1 1027,7 87 -
00:13 11,3 9,2 14,3 North 19,3 1027,7 87 -
00:19 11,3 9,0 9,7 North 14,5 1027,7 86 -
00:23 11,2 8,9 16,3 North 22,5 1027,7 86 -
00:29 11,2 8,9 19,5 NNE 22,5 1028,0 86 -
00:33 11,2 8,9 6,4 NNW 19,3 1028,0 86 -
00:39 11,1 8,8 7,9 NNE 17,7 1028,0 86 -
00:43 11,1 8,8 11,1 NNE 24,1 1028,3 86 -
00:49 11,1 8,7 7,9 North 19,3 1028,3 85 -
00:53 11,1 8,7 6,4 NW 24,1 1028,3 85 -
00:59 11,0 8,7 19,5 NNE 19,3 1028,7 86 -
01:03 11,0 8,7 16,3 North 16,1 1028,7 86 -
01:09 10,9 8,6 9,7 North 29,0 1028,7 86 -
01:13 10,9 8,6 16,3 NNW 17,7 1028,7 86 -
01:19 10,8 8,7 9,7 North 19,3 1029,0 87 -
01:23 10,7 8,6 9,7 NNE 12,9 1029,0 87 -
01:29 10,7 8,8 9,7 North 17,7 1029,0 88 -
01:33 10,7 8,8 3,2 NNW 17,7 1029,0 88 -
01:39 10,7 8,8 6,4 NNE 14,5 1029,0 88 -
01:43 10,7 8,8 6,4 NE 17,7 1029,3 88 -
01:49 10,7 8,6 14,3 NE 19,3 1029,3 87 -
01:53 10,7 8,6 17,7 NNW 17,7 1029,3 87 -
01:59 10,6 8,4 16,3 NNW 22,5 1029,3 86 -
02:03 10,6 8,4 4,7 ENE 16,1 1029,3 86 -
02:09 10,6 8,4 9,7 North 20,9 1029,3 86 -
02:13 10,5 8,3 3,2 North 14,5 1029,3 86 -
02:19 10,4 8,2 3,2 NNW 17,7 1029,7 86 -
02:23 10,4 8,2 9,7 NNE 19,3 1029,7 86 -
02:29 10,3 8,1 13,0 NNE 17,7 1029,7 86 -
02:33 10,3 8,1 16,3 NE 16,1 1029,7 86 -
02:39 10,2 8,0 3,2 NNE 14,5 1029,7 86 -
02:43 10,2 8,1 14,3 NE 17,7 1029,7 87 -
02:49 10,1 8,0 6,4 North 9,7 1029,7 87 -
02:53 10,1 8,0 1,4 NE 9,7 1029,7 87 -
02:59 10,0 7,9 3,2 NNW 9,7 1029,7 87 -
03:03 9,9 7,8 4,7 NE 6,4 1029,7 87 -
03:09 9,9 8,0 9,7 NNE 11,3 1029,7 88 -
03:13 9,8 7,9 4,7 ENE 9,7 1030,0 88 -
03:19 9,8 7,9 7,9 NE 9,7 1030,0 88 -
03:23 9,7 7,8 1,4 ENE 8,0 1030,0 88 -
03:29 9,7 7,8 4,7 NW 6,4 1030,0 88 -
03:33 9,7 7,8 3,2 NE 4,8 1030,0 88 -
03:39 9,6 7,7 1,4 NE 3,2 1030,0 88 -
03:43 9,6 7,9   Calm 4,8 1030,0 89 -
03:49 9,5 7,8 6,4 NNW 6,4 1030,0 89 -
03:53 9,5 7,8 4,7 ENE 6,4 1030,0 89 -
03:59 9,4 7,7 4,7 NNW 9,7 1030,0 89 -
04:03 9,4 7,7 6,4 NW 14,5 1030,4 89 -
04:09 9,3 7,6 3,2 North 12,9 1030,4 89 -
04:13 9,3 7,6 6,4 NNW 11,3 1030,4 89 -
04:19 9,2 7,5 3,2 NE 12,9 1030,4 89 -
04:23 9,2 7,5 4,7 East 12,9 1030,4 89 -
04:29 9,1 7,5 4,7 NE 11,3 1030,4 90 -
04:33 8,9 7,3 9,7 NNW 12,9 1030,4 90 -
04:39 8,8 7,2 1,4 ENE 11,3 1030,7 90 -
04:43 8,7 7,2 1,4 NNE 9,7 1030,7 90 -
04:49 8,7 7,2 4,7 NNW 11,3 1030,7 90 -
04:53 8,6 7,1 9,7 NE 12,9 1030,7 90 -
04:59 8,5 7,1 6,4 North 12,9 1030,7 91 -
05:03 8,4 7,0 9,7 NNW 11,3 1030,7 91 -
05:09 8,3 6,9 7,9 NNE 16,1 1030,7 91 -
05:13 8,3 6,9 13,0 NNE 12,9 1030,7 91 -
05:19 8,2 6,8 4,7 NNE 9,7 1030,7 91 -
05:23 8,2 7,0 7,9 North 9,7 1030,7 92 -
05:29 8,2 7,0 6,4 North 9,7 1031,0 92 -
05:33 8,1 6,9 6,4 NNW 8,0 1031,0 92 -
05:39 8,1 6,9   Calm 3,2 1031,0 92 -
05:43 7,9 6,7 3,2 NNW 4,8 1031,0 92 -
05:49 7,9 6,7   Calm 1,6 1031,0 92 -
05:53 7,8 6,6   Calm 1,6 1031,0 92 -
05:59 7,6 6,4   Calm 1,6 1031,0 92 -
06:03 7,5 6,3   Calm 3,2 1031,0 92 -
06:09 7,4 6,2   Calm 3,2 1031,0 92 -
06:13 7,4 6,2 1,4 NNW 4,8 1031,4 92 -
06:17 7,3 6,1 4,7 North 4,8 1031,4 92 -
06:24 7,3 6,1 4,7 NNW 11,3 1031,4 92 -
06:28 7,3 6,2 7,9 North 11,3 1031,4 93 -
06:34 7,4 6,2 13,0 North 12,9 1031,4 92 -
06:38 7,5 6,3 6,4 NNW 11,3 1031,4 92 -
06:44 7,5 6,3   Calm 8,0 1031,4 92 -
06:48 7,5 6,3 3,2 NE 6,4 1031,4 92 -
06:54 7,4 6,0 4,7 North 6,4 1031,7 91 -
06:58 7,4 6,0   Calm 4,8 1031,7 91 -
07:04 7,4 6,0 4,7 NE 6,4 1031,7 91 -
07:08 7,4 6,2 3,2 NE 4,8 1031,7 92 -
07:14 7,4 6,2 3,2 NNE 6,4 1031,7 92 -
07:18 7,4 6,2 4,7 North 14,5 1031,7 92 -

Download your copy of this data-set  here

Our weather-data as stored at Weather Underground. Script developed by Jim McMurry. Adapted for the template by Leuven-Template.eu

You find our weather info also at:

Weather Underground

Equipment we use:

Weather-station
Davis Vue

Weather-program
Meteobridge

Weather-server
Raspberry PI 2 B+

Provider
1 and 1

Davis Vue

Meteobridge

Raspberry PI 2 B+

1 and 1